Regional Weather Roundup
Issued by NWS

Home | Current Version | Previous Version | Text Only | Print | Product List | Glossary On
Versions: 1 2 3 4 5 6 7 8 9 10 11 12 13 14 15 16 17 18 19 20 21 22 23 24 25 26 27 28 29 30 31 32 33 34 35 36 37 38 39 40 41 42 43 44 45 46 47 48 49 50
000
ASUS43 KLSX 050059
RWRMO

WEATHER SUMMARY FOR MISSOURI
NATIONAL WEATHER SERVICE SPRINGFIELD MO
700 PM CST WED MAR 04 2015

NOTE: "FAIR" INDICATES FEW OR NO CLOUDS BELOW 12,000 FEET WITH NO
       SIGNIFICANT WEATHER AND/OR OBSTRUCTIONS TO VISIBILITY.
       CURRENT SKY AND/OR WEATHER CONDITIONS ARE NOT AVAILABLE FOR
       CHILLICOTHE AND FARMINGTON.

MOZ001>031-035>038-043-044-053-054-050200-
...NORTHERN AND WESTERN MISSOURI...

CITY           SKY/WX    TMP DP  RH WIND       PRES   REMARKS
KANSAS CTY INT CLOUDY    26   8  46 N3        30.32R
KANSAS C DTWN  CLOUDY    28   6  39 NE5       30.34R WCI  23
LEE`S SUMMIT   CLOUDY    27   6  41 N6        30.34R WCI  20
ST JOSEPH      CLOUDY    28   4  35 N15       30.33R WCI  16
CHILLICOTHE      N/A     28   7  41 CALM      30.37R

$$
MOZ066>068-077>081-088>096-101>105-050200-
...SOUTHWEST MISSOURI...

CITY           SKY/WX    TMP DP  RH WIND       PRES   REMARKS
SPRINGFIELD    LGT SNOW  22   9  57 NE17G23   30.29R WCI   8
JOPLIN         CLOUDY    24   9  52 N12       30.32S WCI  13

$$
MOZ032>034-039>042-045>050-055>058-069>072-050200-
...CENTRAL MISSOURI...

CITY           SKY/WX    TMP DP  RH WIND       PRES   REMARKS
COLUMBIA       MOCLDY    23   4  44 N12       30.35R WCI  12
JEFFERSON CITY MOCLDY    25   0  33 N8        30.38R WCI  16
ROLLA          CLOUDY    21   5  50 N9        30.30R WCI  11
SEDALIA        MOCLDY    25   7  46 N8        30.36R WCI  16
OSAGE BEACH    CLOUDY    25   7  46 N3        30.33R

$$
MOZ051-052-059>065-050200-
...EAST CENTRAL MISSOURI...

CITY           SKY/WX    TMP DP  RH WIND       PRES   REMARKS
ST LOUIS INTL  CLOUDY    24   5  44 N14       30.32R WCI  12
SPIRIT OF STL  CLOUDY    23   4  44 N9G16     30.35R WCI  13
ST CHARLES     CLOUDY    22   4  46 N12       30.34R WCI  10

$$
MOZ072>076-082>087-097>100-106>115-050200-
...SOUTH CENTRAL AND SOUTHEAST MISSOURI...

CITY           SKY/WX    TMP DP  RH WIND       PRES   REMARKS
CAPE GIRARDEAU FOG       20  18  92 N15       30.28R VSB 3/4 WCI   6
FARMINGTON     CLOUDY    19   9  63 N10       30.28R WCI   8
POPLAR BLUFF   FOG       21  17  84 N21       30.26R VSB 1/2 WCI   5
WEST PLAINS    LGT SNOW  19  13  77 N9        30.24R WCI   8

$$



USA.gov is the U.S. government's official web portal to all federal, state and local government web resources and services.